When you browse on this site, cookies collect data to enhance your experience and personalize the content and advertising you see.
Visit our Privacy Policy to learn more. By continuing to use the site, you agree to this use of cookies and data.
  • In Sweden
  • List of Countries
  • For 7 days
  • Water Temperature
  • Satellite Maps
  • Weather Map
  • Weather Widgets
  • user-avatar
    Login

    Hourly Weather Cicero

    Today, 20 May, Monday

    Time Temperature Precipitation Wind Pressure Humidity
    00:00 +11°C° 0 mm 6 mps 741 mmHg 57%
    01:00 +10°C° 0 mm 6 mps 742 mmHg 60%
    02:00 +9°C° 0 mm 5 mps 742 mmHg 63%
    03:00 +8°C° 0 mm 5 mps 742 mmHg 65%
    04:00 +8°C° 0 mm 5 mps 743 mmHg 65%
    05:00 +7°C° 0 mm 5 mps 744 mmHg 65%
    06:00 +7°C° 0 mm 4 mps 744 mmHg 65%
    07:00 +8°C° 0 mm 4 mps 745 mmHg 64%
    08:00 +8°C° 0 mm 4 mps 746 mmHg 63%
    09:00 +10°C° 0 mm 4 mps 746 mmHg 62%
    10:00 +10°C° 0 mm 4 mps 747 mmHg 60%
    11:00 +11°C° 0 mm 3 mps 748 mmHg 59%
    12:00 +11°C° 0 mm 3 mps 748 mmHg 57%
    13:00 +12°C° 0 mm 3 mps 748 mmHg 55%
    14:00 +12°C° 0 mm 3 mps 748 mmHg 54%
    15:00 +13°C° 0 mm 3 mps 749 mmHg 52%
    16:00 +14°C° 0 mm 2 mps 749 mmHg 52%
    17:00 +14°C° 0 mm 2 mps 749 mmHg 52%
    18:00 +14°C° 0 mm 1 mps 749 mmHg 52%
    19:00 +13°C° 0 mm 1 mps 749 mmHg 53%
    20:00 +13°C° 0 mm 1 mps 749 mmHg 54%
    21:00 +13°C° 0 mm 1 mps 750 mmHg 56%
    22:00 +11°C° 0 mm 0 mps 750 mmHg 56%
    23:00 +11°C° 0 mm 0 mps 750 mmHg 56%

    Tomorrow, 21 May, Tuesday

    Time Temperature Precipitation Wind Pressure Humidity
    00:00 +11°C° 0 mm 0 mps 749 mmHg 57%
    01:00 +12°C° 0 mm 1 mps 749 mmHg 57%
    02:00 +12°C° 0 mm 1 mps 749 mmHg 58%
    03:00 +12°C° 0 mm 2 mps 749 mmHg 59%
    04:00 +12°C° 0 mm 2 mps 749 mmHg 58%
    05:00 +11°C° 0 mm 3 mps 749 mmHg 57%
    06:00 +11°C° 0 mm 3 mps 749 mmHg 56%
    07:00 +11°C° 0.5 mm 3 mps 749 mmHg 57%
    08:00 +10°C° 0.5 mm 3 mps 750 mmHg 59%
    09:00 +10°C° 0.5 mm 3 mps 750 mmHg 61%
    10:00 +10°C° 2.3 mm 4 mps 750 mmHg 65%
    11:00 +10°C° 2.3 mm 4 mps 749 mmHg 69%
    12:00 +8°C° 2.3 mm 5 mps 749 mmHg 73%
    13:00 +9°C° 0.2 mm 5 mps 749 mmHg 72%
    14:00 +9°C° 0.2 mm 5 mps 748 mmHg 72%
    15:00 +9°C° 0.2 mm 6 mps 748 mmHg 71%
    16:00 +10°C° 0 mm 6 mps 747 mmHg 68%
    17:00 +10°C° 0 mm 7 mps 746 mmHg 65%
    18:00 +10°C° 0 mm 7 mps 745 mmHg 63%
    19:00 +11°C° 0 mm 7 mps 745 mmHg 61%
    20:00 +11°C° 0 mm 7 mps 744 mmHg 59%
    21:00 +11°C° 0 mm 7 mps 744 mmHg 57%
    22:00 +11°C° 0.6 mm 7 mps 744 mmHg 60%
    23:00 +11°C° 0.6 mm 6 mps 744 mmHg 63%

    Day after tomorrow, 22 May, Wednesday

    Time Temperature Precipitation Wind Pressure Humidity
    00:00 +11°C° 0.6 mm 6 mps 744 mmHg 65%
    01:00 +11°C° 3.9 mm 6 mps 743 mmHg 71%
    02:00 +11°C° 3.9 mm 7 mps 743 mmHg 76%
    03:00 +11°C° 3.9 mm 8 mps 742 mmHg 82%
    04:00 +11°C° 0 mm 8 mps 742 mmHg 81%
    05:00 +11°C° 0 mm 7 mps 742 mmHg 80%
    06:00 +12°C° 0 mm 7 mps 742 mmHg 78%
    07:00 +14°C° 0 mm 7 mps 742 mmHg 75%
    08:00 +16°C° 0 mm 6 mps 742 mmHg 71%
    09:00 +19°C° 0 mm 5 mps 742 mmHg 68%
    10:00 +21°C° 0 mm 5 mps 742 mmHg 63%
    11:00 +25°C° 0 mm 5 mps 742 mmHg 58%
    12:00 +27°C° 0 mm 5 mps 742 mmHg 54%
    13:00 +28°C° 0 mm 5 mps 742 mmHg 49%
    14:00 +30°C° 0 mm 6 mps 742 mmHg 44%
    15:00 +32°C° 0 mm 6 mps 742 mmHg 39%
    16:00 +30°C° 0 mm 6 mps 742 mmHg 42%
    17:00 +29°C° 0 mm 5 mps 742 mmHg 45%
    18:00 +28°C° 0 mm 5 mps 742 mmHg 47%
    19:00 +27°C° 0 mm 4 mps 742 mmHg 52%
    20:00 +26°C° 0 mm 4 mps 743 mmHg 57%
    21:00 +25°C° 0 mm 4 mps 743 mmHg 62%
    22:00 +24°C° 0.6 mm 3 mps 744 mmHg 70%
    23:00 +24°C° 0.6 mm 3 mps 744 mmHg 77%

    23 May, Thursday

    Time Temperature Precipitation Wind Pressure Humidity
    00:00 +22°C° 0.6 mm 3 mps 744 mmHg 84%
    01:00 +22°C° 1.3 mm 4 mps 744 mmHg 86%
    02:00 +22°C° 1.3 mm 4 mps 744 mmHg 88%
    03:00 +21°C° 1.3 mm 4 mps 745 mmHg 90%
    04:00 +21°C° 0 mm 3 mps 745 mmHg 90%
    05:00 +21°C° 0 mm 3 mps 745 mmHg 90%
    06:00 +21°C° 0 mm 3 mps 745 mmHg 90%
    07:00 +24°C° 0 mm 3 mps 745 mmHg 83%
    08:00 +26°C° 0 mm 4 mps 746 mmHg 77%
    09:00 +27°C° 0 mm 4 mps 746 mmHg 70%
    10:00 +29°C° 0 mm 4 mps 746 mmHg 63%
    11:00 +30°C° 0 mm 4 mps 746 mmHg 57%
    12:00 +33°C° 0 mm 5 mps 746 mmHg 51%
    13:00 +33°C° 0.1 mm 5 mps 746 mmHg 52%
    14:00 +33°C° 0.1 mm 5 mps 746 mmHg 53%
    15:00 +33°C° 0.1 mm 4 mps 746 mmHg 54%
    16:00 +32°C° 1.6 mm 4 mps 746 mmHg 58%
    17:00 +30°C° 1.6 mm 3 mps 746 mmHg 62%
    18:00 +29°C° 1.6 mm 3 mps 746 mmHg 66%
    19:00 +28°C° 0.7 mm 2 mps 746 mmHg 71%
    20:00 +27°C° 0.7 mm 2 mps 746 mmHg 76%
    21:00 +26°C° 0.7 mm 1 mps 746 mmHg 81%
    22:00 +26°C° 0.2 mm 1 mps 746 mmHg 83%
    23:00 +25°C° 0.2 mm 1 mps 746 mmHg 85%

    24 May, Friday

    Time Temperature Precipitation Wind Pressure Humidity
    00:00 +25°C° 0.2 mm 1 mps 746 mmHg 87%
    01:00 +24°C° 2.3 mm 1 mps 746 mmHg 89%
    02:00 +24°C° 2.3 mm 1 mps 746 mmHg 90%
    03:00 +23°C° 2.3 mm 1 mps 746 mmHg 92%
    04:00 +23°C° 0.5 mm 1 mps 746 mmHg 91%
    05:00 +24°C° 0.5 mm 2 mps 746 mmHg 91%
    06:00 +24°C° 0.5 mm 2 mps 746 mmHg 90%
    07:00 +25°C° 0.1 mm 2 mps 746 mmHg 82%
    08:00 +27°C° 0.1 mm 3 mps 746 mmHg 74%
    09:00 +29°C° 0.1 mm 4 mps 746 mmHg 66%
    10:00 +30°C° 0 mm 5 mps 745 mmHg 59%
    11:00 +33°C° 0 mm 5 mps 745 mmHg 52%
    12:00 +34°C° 0 mm 6 mps 745 mmHg 45%
    13:00 +34°C° 0 mm 6 mps 744 mmHg 45%
    14:00 +35°C° 0 mm 7 mps 744 mmHg 44%
    15:00 +35°C° 0 mm 7 mps 744 mmHg 44%
    16:00 +34°C° 0 mm 7 mps 744 mmHg 48%
    17:00 +33°C° 0 mm 6 mps 743 mmHg 52%
    18:00 +32°C° 0 mm 6 mps 743 mmHg 56%
    19:00 +30°C° 0 mm 6 mps 743 mmHg 59%
    20:00 +29°C° 0 mm 6 mps 743 mmHg 63%
    21:00 +28°C° 0 mm 6 mps 743 mmHg 66%
    22:00 +27°C° 0 mm 5 mps 743 mmHg 66%
    23:00 +27°C° 0 mm 5 mps 743 mmHg 67%

    25 May, Saturday

    Time Temperature Precipitation Wind Pressure Humidity
    00:00 +26°C° 0 mm 5 mps 743 mmHg 67%
    01:00 +26°C° 0.1 mm 5 mps 743 mmHg 68%
    02:00 +26°C° 0.1 mm 5 mps 743 mmHg 69%
    03:00 +26°C° 0.1 mm 5 mps 743 mmHg 70%
    04:00 +25°C° 0 mm 4 mps 743 mmHg 73%
    05:00 +25°C° 0 mm 4 mps 743 mmHg 75%
    06:00 +25°C° 0 mm 4 mps 743 mmHg 78%
    07:00 +25°C° 0.3 mm 4 mps 743 mmHg 74%
    08:00 +26°C° 0.3 mm 4 mps 744 mmHg 71%
    09:00 +26°C° 0.3 mm 4 mps 744 mmHg 68%
    10:00 +27°C° 0 mm 4 mps 744 mmHg 63%
    11:00 +29°C° 0 mm 5 mps 744 mmHg 59%
    12:00 +30°C° 0 mm 5 mps 744 mmHg 55%
    13:00 +30°C° 0 mm 5 mps 744 mmHg 54%
    14:00 +32°C° 0 mm 5 mps 744 mmHg 53%
    15:00 +32°C° 0 mm 4 mps 744 mmHg 52%
    16:00 +30°C° 0.2 mm 4 mps 744 mmHg 56%
    17:00 +30°C° 0.2 mm 4 mps 744 mmHg 60%
    18:00 +29°C° 0.2 mm 4 mps 744 mmHg 64%
    19:00 +28°C° 0.4 mm 3 mps 744 mmHg 68%
    20:00 +27°C° 0.4 mm 3 mps 744 mmHg 72%
    21:00 +26°C° 0.4 mm 2 mps 744 mmHg 77%
    22:00 +26°C° 1.3 mm 2 mps 744 mmHg 79%
    23:00 +25°C° 1.3 mm 1 mps 744 mmHg 82%
    Show more